Hourly Data Report for October 06, 2017

All times are specified in Local Standard Time (LST). Add 1 hour to adjust for Daylight Saving Time where and when it is observed.

OTTAWA INTL A
ONTARIO

45°19'00.000" N
75°40'00.000" W
114.90 m
6106001
71628
YOW

Download Data

Hourly Data (October 2017)
Hourly Data Report for October 6, 2017
Temp Definition
°C
Dew Point Temp Definition
°C
Rel Hum Definition
%
Wind Dir Definition
10's deg

Wind Spd Definition
km/h
Visibility Definition
km
Stn Press Definition
kPa
Hmdx Definition


Wind Chill Definition


Weather Definition


TIME
00:00 Legend Double Dagger 9.8 7.7 87 28 10 24.1 100.31     LegendNANA
01:00 Legend Double Dagger 10.3 8.2 87 23 12 24.1 100.34     Mostly Cloudy
02:00 Legend Double Dagger 10.3 8.2 87 23 7 24.1 100.26     LegendNANA
03:00 Legend Double Dagger 10.6 8.7 88 23 10 24.1 100.32     LegendNANA
04:00 Legend Double Dagger 10.4 8.9 90 23 7 24.1 100.36     Cloudy
05:00 Legend Double Dagger 10.8 9.0 89 22 9 24.1 100.36     LegendNANA
06:00 Legend Double Dagger 10.9 9.2 89 23 10 24.1 100.41     LegendNANA
07:00 Legend Double Dagger 11.3 9.8 90 23 7 24.1 100.44     Mostly Cloudy
08:00 Legend Double Dagger 12.2 10.2 87 24 12 24.1 100.49     LegendNANA
09:00 Legend Double Dagger 14.5 10.8 78 24 11 24.1 100.50     LegendNANA
10:00 Legend Double Dagger 15.4 10.5 72 21 9 24.1 100.49     Mainly Clear
11:00 Legend Double Dagger 16.2 8.6 60 30 9 24.1 100.48     LegendNANA
12:00 Legend Double Dagger 17.1 7.5 53 29 13 24.1 100.45     LegendNANA
13:00 Legend Double Dagger 18.4 8.4 52 22 10 24.1 100.40     Mostly Cloudy
14:00 Legend Double Dagger 18.0 9.2 56 24 13 24.1 100.36     LegendNANA
15:00 Legend Double Dagger 17.4 7.7 52 25 8 24.1 100.33     LegendNANA
16:00 Legend Double Dagger 18.0 9.7 58 24 10 24.1 100.28     Mainly Clear
17:00 Legend Double Dagger 16.9 9.8 63 24 8 24.1 100.29     LegendNANA
18:00 Legend Double Dagger 14.3 10.7 78 20 9 24.1 100.34     LegendNANA
19:00 Legend Double Dagger 13.0 10.5 85 18 8 24.1 100.34     Clear
20:00 Legend Double Dagger 11.1 9.7 91 14 8 24.1 100.40     LegendNANA
21:00 Legend Double Dagger 11.2 10.3 94 17 8 24.1 100.44     LegendNANA
22:00 Legend Double Dagger 11.2 10.6 97 18 8 24.1 100.44     Clear
23:00 Legend Double Dagger 10.7 10.4 98 18 7 16.1 100.44     LegendNANA

Notes on Data Quality.

Legend

  • E = Estimated
  • M = Missing
  • NA = Not Available
  • ‡ = Partner data that is not subject to review by the National Climate Archives
Date modified: